Location: Pulvis Stellarum Observatory
(41.6962°N, 71.4263°W)
Time: 16:36:06
(UTC-04:00)

Daily predictions for brighter satellites

Satellite Brightness Start Highest point End
(mag) Time Altitude Azimuth Time Altitude Azimuth Time Altitude Azimuth
Cosmos 1544 3.0 19:31:17 10° S 19:34:55 68° E 19:38:35 10° NNE
In-Cosmos 22 4.1 19:29:39 10° N 19:34:59 89° E 19:40:16 10° S
CZ-3B DEB 3.8 19:24:08 10° WSW 19:35:26 52° NW 19:40:43 10° NE
FREGAT/IRIS 2.7 19:32:26 10° S 19:35:30 83° W 19:38:34 10° NNW
Cosmos-2242 3.8 19:33:44 10° SSE 19:37:23 29° E 19:41:04 10° NNE
Cosmos 1758 3.2 19:39:51 10° S 19:43:49 73° E 19:47:49 10° NNE
Cosmos 1766 Rocket 3.9 19:39:36 10° N 19:43:55 44° ENE 19:48:12 10° SSE
Cosmos 2369 Rocket 3.8 19:43:51 10° ESE 19:46:04 12° E 19:48:16 10° ENE
HJ-1C 3.4 19:42:47 10° SSE 19:46:10 75° ENE 19:49:36 10° N
FENGYUN 3A 3.7 19:40:54 10° SSE 19:46:18 82° ENE 19:51:43 10° NNW
Cosmos 1953 2.3 19:44:34 10° S 19:48:37 76° E 19:52:40 10° N
Lacrosse 5 3.8 19:47:17 10° W 19:51:39 28° NNW 19:56:01 10° NNE
Cosmos 1833 Rocket 2.7 19:50:20 10° NNW 19:56:00 86° ENE 20:01:38 10° SSE
GP-B 3.4 19:54:11 10° SSE 19:58:23 44° E 20:02:36 10° NNE
ATLAS 5 CENTAUR R/B 1.9 19:59:31 10° SW 20:04:13 83° NW 20:09:21 10° NE
CZ-2D R/B 3.3 20:01:13 10° SSE 20:05:03 62° ENE 20:08:55 10° N
Cosmos 1939 Rocket 4.3 20:04:26 16° ESE 20:06:31 22° ENE 20:09:46 10° NNE
Cosmos 482 Debris 2.8 20:05:28 10° NW 20:07:14 45° NNE 20:07:45 32° E
Lacrosse 5 rocket 1.1 20:03:26 10° NW 20:07:23 82° SW 20:10:29 14° SE
Cosmos 158 Rocket 4.1 20:02:33 10° NNW 20:07:44 80° WSW 20:13:01 10° SSE
ALOS 3.0 20:03:12 10° S 20:07:48 57° W 20:12:24 10° NNW
USA 215 4.4 20:03:33 10° ENE 20:08:04 20° ESE 20:12:33 10° SSE
Meteor 1-29 4.0 20:05:12 10° NE 20:08:08 25° E 20:11:03 10° SSE
Cosmos 372 Rocket 4.2 20:03:39 10° SSW 20:08:45 76° WNW 20:13:57 10° NNE
Cosmos 2278 Rocket 4.3 20:05:40 10° WSW 20:10:37 30° NW 20:15:36 10° N
Resurs 01 Rocket 1.7 20:06:49 10° SSE 20:11:13 82° WSW 20:15:41 10° NNW
Cosmos 1743 Rocket 3.9 20:10:28 10° N 20:14:45 45° ENE 20:18:37 12° SSE
Cosmos 1500 Rocket 4.3 20:11:03 10° NNE 20:14:57 32° ENE 20:17:17 19° SE
Cosmos 1733 3.1 20:11:33 10° S 20:15:24 73° E 20:19:17 10° NNE
CZ-4C R/B 3.1 20:11:44 10° SSE 20:15:45 23° ESE 20:20:06 10° ENE
USA 186 0.9 20:16:04 35° SE 20:16:41 50° ENE 20:18:50 10° N
Spot 1 4.5 20:12:38 10° SSE 20:17:18 58° ENE 20:22:14 10° N
Helios 1B rocket 2.6 20:15:12 10° NNE 20:19:12 47° E 20:23:10 10° S
Cosmos 2251 Rocket 3.8 20:14:36 10° N 20:19:46 48° ENE 20:23:30 18° SE
COSMOS 2487 4.1 20:17:33 10° NW 20:20:51 35° WSW 20:24:07 10° S
BREEZE-M DEB (TANK) 3.6 20:19:18 10° NW 20:21:18 24° NNE 20:22:27 19° ENE
Cosmos 2100 Rocket 4.0 20:16:15 10° S 20:22:33 76° E 20:28:56 10° N
Cosmos 2151 3.9 20:19:29 10° NNE 20:23:10 28° ENE 20:24:19 24° ESE
Gblst 52 Del rocket 4.4 20:19:37 10° SSW 20:25:32 53° SE 20:30:40 12° ENE
Cosmos 1470 2.9 20:23:42 10° SSW 20:27:40 75° W 20:31:39 10° N
SAR-Lupe-4 3.4 20:27:04 15° SSE 20:29:57 81° ENE 20:33:34 10° N
PSLV R/B 4.0 20:28:07 10° SW 20:30:57 31° SSE 20:31:00 31° SSE
Cosmos 1408 Rocket 4.4 20:28:29 10° NNW 20:32:53 53° W 20:37:12 10° S
H-2A R/B 4.3 20:32:15 10° SSW 20:35:54 37° W 20:39:35 10° NNW
YAOGAN 6 3.9 20:37:47 24° ENE 20:37:47 24° ENE 20:40:35 10° NNE
Cosmos 494 Rocket 3.9 20:32:43 10° NNW 20:37:50 70° ENE 20:40:57 24° SSE
Tsikada Rocket 4.4 20:31:58 10° N 20:37:52 42° ENE 20:41:02 25° SE
Spot 2 Rocket 4.4 20:34:22 10° S 20:39:18 49° W 20:44:18 10° NNW
Cosmos 2082 Rocket 3.6 20:35:14 10° NW 20:40:24 37° WSW 20:45:31 10° S
OAO 2 Rocket 4.2 20:35:56 10° SW 20:40:32 33° SSE 20:41:53 28° SE
GPS 2-05 Rocket1 4.2 20:41:23 10° WSW 20:44:24 27° S 20:44:44 26° S
Cosmos 1184 Rocket 2.9 20:44:01 10° NNW 20:47:24 77° W 20:48:38 36° S
SAR-Lupe-1 4.3 20:46:28 23° S 20:48:34 67° WSW 20:52:09 10° NNW
Cosmos 1802 Rocket 4.0 20:42:43 10° S 20:48:52 86° W 20:55:06 10° N
Cosmos 1340 Rocket 3.8 20:45:10 10° NNW 20:49:02 47° W 20:52:49 10° SSW
Helios 1A 3.3 20:45:49 14° S 20:49:22 65° WSW 20:53:33 10° NNW
Cosmos 1842 Rocket 3.4 20:45:39 10° S 20:50:04 84° E 20:54:29 10° N
CZ-4B DEB 2.7 20:49:48 55° S 20:50:23 77° WSW 20:53:30 10° NNW
Cosmos 389 Rocket 2.3 20:52:51 59° SSE 20:53:23 75° E 20:56:55 10° NNE
SeaSat 1 3.9 20:51:22 10° S 20:55:48 34° WSW 21:00:17 10° NW
Meteor 1-16 Rocket 4.2 20:50:31 10° S 20:56:23 86° E 21:02:22 10° N
Envisat 2.9 20:54:15 22° SSE 20:57:34 87° WSW 21:02:40 10° NNW
Cosmos 1356 Rocket 3.3 20:55:14 10° NNW 20:59:20 79° W 21:00:45 39° S
ERS-1 Rocket 3.0 21:03:09 47° ESE 21:04:13 58° ENE 21:09:10 10° N
Meteor 1-11 4.1 20:58:47 10° N 21:04:24 86° E 21:07:17 30° SSE
ISS -1.6 21:01:59 10° WNW 21:04:41 23° NNW 21:06:01 18° NNE
SL-14 R/B 3.5 21:02:47 10° NNW 21:06:39 65° W 21:07:46 42° SSW
Geosat 4.3 21:04:03 10° NNE 21:09:04 67° WNW 21:14:01 10° SW
Cosmos 2233 Rocket 4.0 21:12:07 45° SE 21:13:25 53° E 21:19:21 10° NNE
Cosmos 1626 3.5 21:13:29 10° N 21:15:34 29° NNE 21:15:34 29° NNE
Cosmos 1864 Rocket 4.5 21:13:56 10° S 21:20:17 85° W 21:26:37 10° N
MetOp-B 4.2 21:20:39 54° E 21:20:49 54° ENE 21:26:03 10° N
H-2A R/B 3.4 21:28:33 27° NE 21:28:33 27° NE 21:31:58 10° N
YAOGAN 11 4.5 21:29:48 57° NNE 21:29:48 57° NNE 21:33:35 10° N
Cosmos 2369 Rocket 2.1 21:23:36 10° SSW 21:29:15 86° WNW 21:34:54 10° NNE
Meteor 2-1 Rocket 4.2 21:27:09 26° SSW 21:30:30 83° W 21:36:10 10° N
Cosmos 2221 3.0 21:33:22 54° N 21:33:22 54° N 21:36:48 10° N
Cosmos 2058 3.4 21:29:16 10° NNW 21:33:13 56° W 21:33:13 56° W
Cosmos 1703 4.3 21:32:12 10° N 21:34:51 41° NNW 21:34:51 41° NNW
Lacrosse 5 4.4 21:33:25 10° NW 21:36:10 14° N 21:38:54 10° NNE
Terra 4.0 21:39:38 15° NNE 21:39:38 15° NNE 21:40:57 10° NNE
SPOT 5 3.2 21:40:47 64° NE 21:40:47 64° NE 21:45:33 10° N
Cosmos 1943 Rocket 3.5 21:48:53 27° NE 21:48:53 27° NE 21:51:26 10° NNE
CZ-3B DEB 4.0 21:43:18 10° WNW 21:47:16 17° NNW 21:49:27 12° NNE
NOAA 11 4.1 21:49:56 84° NW 21:49:56 84° NW 21:55:20 10° NNW
H-2A R/B 4.4 21:53:31 15° NNE 21:53:31 15° NNE 21:54:21 10° N
USA 215 3.1 21:45:08 10° NE 21:51:42 79° SE 21:58:13 10° SW
Cosmos 2263 4.2 21:52:40 77° W 21:52:50 78° WNW 21:58:32 10° NNE
CZ-4C R/B 2.8 21:58:30 10° SW 22:03:41 54° NW 22:09:35 10° NNE
SPOT 1/Viking Rocket 4.4 22:13:12 46° NNW 22:13:12 46° NNW 22:16:50 10° NNW
ARGOS 3.8 22:17:29 52° NW 22:17:29 52° NW 22:21:42 10° NNW
USA 267 3.7 22:24:10 50° NNE 22:24:10 50° NNE 22:30:21 10° NW
Cosmos 2297 Rocket 4.4 22:59:11 10° N 23:01:13 18° NNE 23:01:13 18° NNE
H-2A R/B 4.1 23:09:11 24° NW 23:09:11 24° NW 23:11:36 10° NNW
Terra 4.5 23:18:31 16° NNW 23:18:31 16° NNW 23:19:33 10° NNW
ATLAS 3B R/B 3.9 23:20:36 37° NNE 23:20:36 37° NNE 23:24:48 10° NNE
Cosmos 1943 Rocket 4.4 23:30:16 20° NW 23:30:16 20° NW 23:34:13 10° N
Cosmos 2227 Rocket 4.3 23:25:16 10° NNW 23:27:14 21° N 23:27:14 21° N
USA 215 4.4 23:28:25 10° NE 23:36:09 32° WNW 23:40:16 10° W
